sat.trackr.live / text

‹ back to catalog

INTELSAT 20 (IS-20)

NORAD 38740 · 2012-043A

PAYLOAD ACTIVE UNKNOWN

§ Identity

Operator
Country
ITSO
Launch date
2012-08-02
Launch site
FRGUI
Launch vehicle
Mass (kg)
RCS (m²)
1.23

Purposes: comms

External: N2YO · Heavens-Above · Gunter

§ Orbital elements

Epoch: 2026-05-24T21:13:32.237760Z

Period
1,436.64 min
Inclination
0.0072°
Eccentricity
0.0003429
Mean motion
1.00234051 rev/d
Perigee alt
35,782.7 km
Apogee alt
35,811.6 km
Semi-major
42,175.3 km
B*
0.0000e+0
RAAN
134.8745°
Arg perigee
66.1559°
Mean anomaly
68.3198°
Rev number
5,051

§ Raw data

INTELSAT 20 (IS-20)1 38740U 12043A   26144.88440090 -.00000019  00000+0  00000+0 0  99912 38740   0.0072 134.8745 0003429  66.1559  68.3198  1.00234051 50517

JSON: /api/v1/satellites/38740 · /tle

For live sub-satellite position, see the globe view (requires WebGL).

§ Visibility from observer

Set your observer location to see the next 7 days of passes ≥ 10°. The values pass through the URL so the page stays shareable.

No JS? Fill the form by hand. The geolocation button needs JavaScript.